EW9765 Weather Reports


time (UTC)temp
C
wind
direction
speed
KPH
gust
KPH
rain 1hr
cm
rain 24hr
cm
rain mn
cm
humidity
%
barometer
mb
20260505011552 15 280 0.0 0.0 0.00 0.00 0.00 75 1002.3
20260505010048 15 280 0.0 0.0 0.00 0.00 0.00 71 1002.1
20260505004554 16 280 0.0 0.0 0.00 0.00 0.00 67 1002.0
20260505003052 17 280 0.0 0.0 0.00 0.00 0.00 63 1002.0
20260505001548 18 280 0.0 0.0 0.00 0.00 0.00 61 1002.0
20260505000054 19 282 3.2 8.0 0.00 0.00 0.00 58 1002.1
20260504234546 20 284 4.8 12.9 0.00 0.00 0.00 57 1002.0
20260504233046 20 265 3.2 9.7 0.00 0.00 0.00 56 1002.1
20260504231545 21 257 4.8 12.9 0.00 0.00 0.00 54 1002.0
20260504230049 21 269 11.3 16.1 0.00 0.00 0.00 52 1001.9
20260504224547 21 298 8.0 19.3 0.00 0.00 0.00 53 1002.0
20260504223044 22 277 8.0 14.5 0.00 0.00 0.00 50 1001.8
20260504221543 23 209 11.3 25.7 0.00 0.00 0.00 46 1001.7
20260504220042 23 236 6.4 19.3 0.00 0.00 0.00 47 1001.6
20260504214550 23 207 6.4 22.5 0.00 0.00 0.00 47 1001.8
20260504213040 23 178 6.4 19.3 0.00 0.00 0.00 48 1001.8
20260504211537 23 250 11.3 25.7 0.00 0.00 0.00 46 1001.9
20260504210050 23 232 9.7 20.9 0.00 0.00 0.00 48 1002.1
20260504204551 23 234 12.9 27.4 0.00 0.00 0.00 47 1002.2
20260504203034 23 232 8.0 30.6 0.00 0.00 0.00 47 1002.2
20260504201530 23 186 8.0 19.3 0.00 0.00 0.00 49 1002.4
20260504200028 23 281 9.7 24.1 0.00 0.00 0.00 49 1002.7
20260504194525 22 270 9.7 27.4 0.00 0.00 0.00 50 1002.9
20260504193025 22 249 17.7 35.4 0.00 0.00 0.00 50 1003.2
20260504191521 22 288 14.5 24.1 0.00 0.00 0.00 51 1003.3
20260504190017 22 219 9.7 24.1 0.00 0.00 0.00 53 1003.6
20260504184515 22 247 9.7 30.6 0.00 0.00 0.00 56 1003.6
20260504183013 21 244 12.9 22.5 0.00 0.00 0.00 54 1003.9
20260504181511 21 276 14.5 30.6 0.00 0.00 0.00 54 1004.1
20260504180008 21 294 9.7 25.7 0.00 0.00 0.00 56 1004.3
20260504174508 21 231 8.0 19.3 0.00 0.00 0.00 58 1004.4
20260504173003 20 222 12.9 33.8 0.00 0.00 0.00 57 1004.4
20260504171612 20 217 9.7 27.4 0.00 0.00 0.00 58 1004.5
20260504081535 10 199 9.7 20.9 0.00 0.00 0.00 70 1007.1
20260504050007 11 229 4.8 12.9 0.00 0.00 0.00 70 1008.6
20260504044511 11 190 4.8 12.9 0.00 0.00 0.00 69 1008.6
20260504043102 11 267 6.4 14.5 0.00 0.00 0.00 68 1008.5
20260504041607 11 281 8.0 17.7 0.00 0.00 0.00 67 1008.5
20260504040056 11 209 6.4 16.1 0.00 0.00 0.00 67 1008.6
20260504034609 12 231 4.8 14.5 0.00 0.00 0.00 66 1008.6
20260504033056 12 190 6.4 11.3 0.00 0.00 0.00 66 1008.5
20260504031553 11 214 4.8 17.7 0.00 0.00 0.00 67 1008.5
20260504030052 11 194 4.8 11.3 0.00 0.00 0.00 67 1008.7
20260504024553 12 209 4.8 11.3 0.00 0.00 0.00 67 1008.7
20260504023050 12 225 6.4 17.7 0.00 0.00 0.00 66 1008.8
20260504021552 12 201 6.4 14.5 0.00 0.00 0.00 65 1008.9
20260504020056 12 227 6.4 14.5 0.00 0.00 0.00 66 1009.0
20260504014547 12 252 8.0 20.9 0.00 0.00 0.00 66 1009.1
20260504013105 11 274 4.8 12.9 0.00 0.00 0.00 69 1009.2